User: anonymous   Login
Location: Invercargill
(46.4000°S, 168.3500°E)
Time: 22:52:23
(UTC+13:00)
Language:

SJ-6B - Orbit

View from above orbital plane
View from above orbital plane
View from above satellite
View from above satellite

Ground track
Ground track

The orbit data is extracted from the following two-line orbital elements,

1 28415U 04035C   19080.72642909  .00000615  00000-0  44503-4 0  9991
2 28415  97.6732 120.5780 0053322  97.6295 263.0992 15.06643778795315
Epoch (UTC): 21 March 2019 17:26:03
Eccentricity: 0.0053322
inclination: 97.6732°
perigee height: 509 km
apogee height: 583 km
right ascension of ascending node: 120.5780°
argument of perigee: 97.6295°
revolutions per day: 15.06643778
mean anomaly at epoch: 263.0992°
orbit number at epoch: 79531

The dashed part of the orbit path shows where the satellite is in the earth's shadow,  

DLR